STARLINK-1274 (45387 NORAD) Tracking and Keplerian Element Data

This shows tracking and keplerian element data for the satellite.

Feedback or suggestion? Click here.




ElementValue
Catalog45387
NameSTARLINK-1274
Epoch Orbit1086
Epoch Day143.78014457
Epoch Year2020
RAAN294.7401
Inclination52.9995
Eccentricity7.68E-05
Argument of Perigee3.9907
Mean Anonmoly356.1111
Mean Motion15.62542042
Decay Rate-0.00064324
L11 45387U 20019AD 20143.78014457 -.00064324 00000-0 -70807-3 0 9991
L22 45387 52.9995 294.7401 0000768 3.9907 356.1111 15.62542042 10868

Live tracking and technical data element details for STARLINK-1274 (NORAD 45387). STARLINK-1274 can be tracked NOW for your location showing map with azimuth and elevation plus other details from your city location.

Track the satellite on the map from your city or location and see movement details for azimuth, elevation, latitude, longitude, range, height, and movement on the map or in text.







IsCatalogInMostPopularTable: catalog: 45387, numindb: 13
Update: records affected: 1



GetName: 45387 STARLINK-1274

Hit Count: updated at: Mon, 25 May 2020 07:57:34 GMT